Overview Statistics Trail Chart Weather Telemetry Raw packets
 

This is the latest recevied weather packets stored in our database for station/object KB1WCR. If no packets are shown the sender has not sent any weather packets the latest 10 day(s).

<< 79 80 81 82 83 84 85 >>
Time Temp. Humidity Pressure Rain* Wind** Luminosity Snow
1787837299 23.33° C 86% 1018.1 hPa 0 mm - 316 W/m² -
1787836995 23.33° C 87% 1018.2 hPa 0 mm - 290 W/m² -
1787836694 22.78° C 88% 1017.9 hPa 0 mm - 470 W/m² -
1787836389 22.78° C 89% 1018.2 hPa 0 mm - 516 W/m² -
1787836084 22.22° C 91% 1018 hPa 0 mm - 494 W/m² -
1787835781 22.22° C 91% 1018.1 hPa 0 mm - 450 W/m² -
1787835480 22.78° C 89% 1018.1 hPa 0 mm - 402 W/m² -
1787835175 21.67° C 90% 1018.3 hPa 0 mm - 375 W/m² -
1787834881 21.11° C 93% 1018.1 hPa 0 mm - 337 W/m² -
1787834571 20.56° C 95% 1018.2 hPa 0 mm - 240 W/m² -
1787834269 20.56° C 95% 1018.2 hPa 0 mm - 189 W/m² -
1787833965 20° C 96% 1018.1 hPa 0 mm - 215 W/m² -
1787833660 20° C 96% 1018.1 hPa 0 mm - 130 W/m² -
1787833355 19.44° C 97% 1018.1 hPa 0 mm - 198 W/m² -
1787833051 18.89° C 99% 1018.2 hPa 0 mm - 222 W/m² -
1787832746 18.33° C 99% 1018.3 hPa 0 mm - 184 W/m² -
1787832441 18.33° C 99% 1018.1 hPa 0 mm - 183 W/m² -
1787832140 17.78° C 99% 1018.3 hPa 0 mm - 162 W/m² -
1787831838 17.78° C 99% 1018.2 hPa 0 mm - 159 W/m² -
1787831534 17.22° C 99% 1018.1 hPa 0 mm - 153 W/m² -
1787831232 17.22° C 99% 1018.3 hPa 0 mm - 147 W/m² -
1787830929 17.22° C 99% 1018.2 hPa 0 mm - 145 W/m² -
1787830628 16.67° C 99% 1018.1 hPa 0 mm - 110 W/m² -
1787830328 16.67° C 99% 1018.1 hPa 0 mm - 68 W/m² -
1787830022 16.67° C 99% 1018.2 hPa 0 mm - 54 W/m² -

* Rain latest hour (hover to see other rain measurements)
** Current wind speed in m/s (hover to see current wind gust speed)